CW4340 Weather Reports


Display with metric or nautical units.
time (UTC)temp
F
wind
direction
speed
MPH
gust
MPH
rain 1hr
in
rain 24hr
in
rain mn
in
humidity
%
barometer
mb
20210731181005 93 320 0.0 1.0 0.00 0.00 0.00 69 1018.3
20210731180505 93 320 1.0 2.0 0.00 0.00 0.00 68 1018.2
20210731180004 93 320 0.0 0.0 0.00 0.00 0.00 70 1018.2
20210731175504 93 320 1.0 3.0 0.00 0.00 0.00 68 1018.3
20210731175005 93 171 1.0 3.0 0.00 0.00 0.00 69 1018.2
20210731174504 93 171 1.0 3.0 0.00 0.00 0.00 68 1018.2
20210731174005 92 50 0.0 1.0 0.00 0.00 0.00 70 1018.2
20210731173504 92 37 0.0 2.0 0.00 0.00 0.00 68 1018.2
20210731173004 92 37 1.0 3.0 0.00 0.00 0.00 70 1018.2
20210731172504 92 42 0.0 2.0 0.00 0.00 0.00 71 1018.3
20210731172004 91 150 0.0 2.0 0.00 0.00 0.00 73 1018.4
20210731171504 91 150 0.0 3.0 0.00 0.00 0.00 72 1018.4
20210731171005 91 75 1.0 2.0 0.00 0.00 0.00 71 1018.5
20210731170504 90 74 1.0 2.0 0.00 0.00 0.00 73 1018.6
20210731170005 90 74 0.0 1.0 0.00 0.00 0.00 73 1018.6
20210731165505 89 156 0.0 1.0 0.00 0.00 0.00 73 1018.6
20210731165005 89 156 1.0 3.0 0.00 0.00 0.00 72 1018.7
20210731164504 89 156 1.0 3.0 0.00 0.00 0.00 72 1018.7
20210731164005 89 156 0.0 3.0 0.00 0.00 0.00 73 1018.7
20210731163504 89 156 0.0 2.0 0.00 0.00 0.00 74 1018.8
20210731163005 89 157 1.0 3.0 0.00 0.00 0.00 73 1018.8
20210731162504 88 301 1.0 2.0 0.00 0.00 0.00 75 1019.0
20210731162004 88 301 1.0 2.0 0.00 0.00 0.00 74 1019.1
20210731161504 88 322 2.0 5.0 0.00 0.00 0.00 76 1019.2
20210731161005 88 306 0.0 1.0 0.00 0.00 0.00 77 1019.1
20210731160504 88 306 1.0 3.0 0.00 0.00 0.00 76 1019.1
20210731160005 88 304 0.0 2.0 0.00 0.00 0.00 78 1019.1
20210731155504 87 304 0.0 0.0 0.00 0.00 0.00 78 1019.2
20210731155005 87 304 0.0 1.0 0.00 0.00 0.00 79 1019.1
20210731154505 87 304 0.0 2.0 0.00 0.00 0.00 79 1019.2
20210731154004 86 339 0.0 2.0 0.00 0.00 0.00 79 1019.2
20210731153504 86 340 0.0 1.0 0.00 0.00 0.00 80 1019.2
20210731153004 86 312 1.0 2.0 0.00 0.00 0.00 80 1019.3
20210731152505 86 303 0.0 2.0 0.00 0.00 0.00 80 1019.2
20210731152004 85 303 1.0 3.0 0.00 0.00 0.00 81 1019.2
20210731151504 85 284 0.0 1.0 0.00 0.00 0.00 81 1019.2
20210731151004 85 284 1.0 2.0 0.00 0.00 0.00 81 1019.1
20210731150504 85 272 1.0 2.0 0.00 0.00 0.00 82 1019.2
20210731150005 85 241 0.0 2.0 0.00 0.00 0.00 82 1019.3
20210731145504 84 240 0.0 1.0 0.00 0.00 0.00 84 1019.2
20210731145004 84 241 1.0 2.0 0.00 0.00 0.00 84 1019.2
20210731144505 84 238 1.0 2.0 0.00 0.00 0.00 84 1019.1
20210731144004 83 237 1.0 1.0 0.00 0.00 0.00 86 1019.2
20210731143505 83 237 1.0 2.0 0.00 0.00 0.00 86 1019.3
20210731143004 83 237 0.0 2.0 0.00 0.00 0.00 86 1019.2
20210731142505 83 237 1.0 2.0 0.00 0.00 0.00 87 1019.2
20210731142005 82 237 1.0 3.0 0.00 0.00 0.00 88 1019.2
20210731141504 82 217 0.0 1.0 0.00 0.00 0.00 89 1019.3
20210731141005 82 211 0.0 2.0 0.00 0.00 0.00 89 1019.2
20210731140505 81 211 1.0 3.0 0.00 0.00 0.00 90 1019.3
20210731140005 81 200 0.0 2.0 0.00 0.00 0.00 91 1019.2
20210731135505 81 200 0.0 2.0 0.00 0.00 0.00 91 1019.1
20210731135004 81 200 0.0 2.0 0.00 0.00 0.00 91 1019.1
20210731134504 80 188 0.0 0.0 0.00 0.00 0.00 92 1019.1
20210731134004 80 188 0.0 1.0 0.00 0.00 0.00 92 1019.1
20210731133504 80 188 0.0 1.0 0.00 0.00 0.00 93 1019.1
20210731133004 79 188 0.0 1.0 0.00 0.00 0.00 93 1019.1
20210731132504 79 188 0.0 1.0 0.00 0.00 0.00 93 1019.0
20210731132004 79 177 0.0 2.0 0.00 0.00 0.00 94 1018.9
20210731131504 79 175 0.0 0.0 0.00 0.00 0.00 93 1018.9
20210731131004 79 175 0.0 0.0 0.00 0.00 0.00 93 1018.9
20210731130504 78 175 0.0 0.0 0.00 0.00 0.00 93 1018.9
20210731130004 78 175 0.0 0.0 0.00 0.00 0.00 93 1018.8
20210731125505 78 175 0.0 0.0 0.00 0.00 0.00 93 1018.8
20210731125004 78 175 0.0 0.0 0.00 0.00 0.00 93 1018.8
20210731124504 78 175 0.0 0.0 0.00 0.00 0.00 93 1018.7
20210731124004 78 175 0.0 0.0 0.00 0.00 0.00 93 1018.8
20210731123504 78 175 0.0 0.0 0.00 0.00 0.00 93 1018.8
20210731123004 78 175 0.0 0.0 0.00 0.00 0.00 93 1018.8
20210731122504 78 175 0.0 0.0 0.00 0.00 0.00 93 1018.6
20210731122004 77 175 0.0 0.0 0.00 0.00 0.00 93 1018.6
20210731121505 77 175 0.0 0.0 0.00 0.00 0.00 93 1018.6
20210731121005 77 175 0.0 0.0 0.00 0.00 0.00 93 1018.6
20210731120504 77 175 0.0 0.0 0.00 0.00 0.00 93 1018.6
20210731120004 77 175 0.0 0.0 0.00 0.00 0.00 93 1018.7
20210731115504 77 175 0.0 0.0 0.00 0.00 0.00 93 1018.7
20210731115003 77 175 0.0 0.0 0.00 0.00 0.00 93 1018.7
20210731114504 77 175 0.0 0.0 0.00 0.00 0.00 93 1018.7
20210731114004 77 175 0.0 0.0 0.00 0.00 0.00 93 1018.6
20210731113503 77 175 0.0 0.0 0.00 0.00 0.00 93 1018.6
20210731113004 77 175 0.0 0.0 0.00 0.00 0.00 92 1018.6
20210731112504 77 175 0.0 0.0 0.00 0.00 0.00 92 1018.7
20210731112004 77 175 0.0 0.0 0.00 0.00 0.00 92 1018.5
20210731111504 77 175 0.0 0.0 0.00 0.00 0.00 92 1018.5
20210731111004 77 175 0.0 0.0 0.00 0.00 0.00 92 1018.4
20210731110504 77 175 0.0 0.0 0.00 0.00 0.00 92 1018.4
20210731110004 77 175 0.0 0.0 0.00 0.00 0.00 92 1018.4
20210731105504 77 175 0.0 0.0 0.00 0.00 0.00 92 1018.2
20210731105004 77 175 0.0 0.0 0.00 0.00 0.00 92 1018.2
20210731104504 77 175 0.0 0.0 0.00 0.00 0.00 92 1018.2
20210731104004 77 175 0.0 0.0 0.00 0.00 0.00 92 1018.1
20210731103504 77 175 0.0 0.0 0.00 0.00 0.00 92 1017.9
20210731103004 77 175 0.0 0.0 0.00 0.00 0.00 92 1018.0
20210731102504 77 175 0.0 0.0 0.00 0.00 0.00 92 1017.9
20210731102004 78 175 0.0 0.0 0.00 0.00 0.00 92 1018.0
20210731101504 78 175 0.0 0.0 0.00 0.00 0.00 92 1018.0
20210731101004 78 175 0.0 0.0 0.00 0.00 0.00 92 1018.0
20210731100504 78 175 0.0 0.0 0.00 0.00 0.00 92 1017.9
20210731100004 78 175 0.0 0.0 0.00 0.00 0.00 92 1017.9
20210731095504 78 175 0.0 0.0 0.00 0.00 0.00 92 1017.8
20210731095004 78 175 0.0 0.0 0.00 0.00 0.00 92 1017.8
20210731094504 78 175 0.0 0.0 0.00 0.00 0.00 92 1017.7
20210731094004 78 175 0.0 0.0 0.00 0.00 0.00 92 1017.8
20210731093504 78 175 0.0 0.0 0.00 0.00 0.00 92 1017.8
20210731093004 78 175 0.0 0.0 0.00 0.00 0.00 92 1017.8
20210731092504 78 175 0.0 0.0 0.00 0.00 0.00 92 1017.8
20210731092004 78 175 0.0 0.0 0.00 0.00 0.00 92 1017.7
20210731091504 78 175 0.0 0.0 0.00 0.00 0.00 92 1017.6
20210731091004 78 175 0.0 0.0 0.00 0.00 0.00 92 1017.7
20210731090504 78 175 0.0 0.0 0.00 0.01 0.00 92 1017.7
20210731090004 78 175 0.0 0.0 0.00 0.01 0.00 92 1017.7
20210731085503 78 175 0.0 0.0 0.00 0.01 0.00 92 1017.6
20210731085004 78 175 0.0 0.0 0.00 0.01 0.00 92 1017.6
20210731084504 78 175 0.0 0.0 0.00 0.01 0.00 92 1017.6
20210731084004 78 175 0.0 0.0 0.00 0.01 0.00 92 1017.5
20210731083504 78 175 0.0 0.0 0.00 0.01 0.00 92 1017.4
20210731083004 78 175 0.0 0.0 0.00 0.01 0.00 92 1017.4
20210731082504 78 175 0.0 0.0 0.00 0.01 0.00 92 1017.4
20210731082004 78 175 0.0 0.0 0.00 0.01 0.00 92 1017.3
20210731081504 78 175 0.0 0.0 0.00 0.01 0.00 92 1017.4
20210731081004 78 175 0.0 0.0 0.00 0.01 0.00 92 1017.3
20210731080504 78 175 0.0 0.0 0.00 0.01 0.00 92 1017.3
20210731080004 78 175 0.0 0.0 0.00 0.01 0.00 92 1017.3
20210731075503 78 175 0.0 0.0 0.00 0.01 0.00 92 1017.4
20210731075004 78 175 0.0 0.0 0.00 0.01 0.00 92 1017.5
20210731074504 79 175 0.0 0.0 0.00 0.01 0.00 92 1017.5
20210731074004 79 175 0.0 0.0 0.00 0.01 0.00 92 1017.4
20210731073504 78 175 0.0 0.0 0.00 0.01 0.00 92 1017.5
20210731073004 79 175 0.0 0.0 0.00 0.01 0.00 91 1017.4
20210731072504 79 175 0.0 0.0 0.00 0.01 0.00 91 1017.4
20210731072004 79 175 0.0 0.0 0.00 0.01 0.00 91 1017.4
20210731071504 79 175 0.0 0.0 0.00 0.01 0.00 91 1017.2
20210731071004 79 175 0.0 0.0 0.00 0.01 0.00 91 1017.2
20210731070504 79 175 0.0 0.0 0.00 0.01 0.00 91 1017.2
20210731070004 79 175 0.0 0.0 0.00 0.01 0.00 91 1017.1
20210731065504 79 175 0.0 0.0 0.00 0.01 0.00 91 1017.2
20210731065003 79 175 0.0 0.0 0.00 0.01 0.00 91 1017.1
20210731064504 79 175 0.0 0.0 0.00 0.01 0.00 91 1017.2
20210731064004 79 175 0.0 0.0 0.00 0.01 0.00 91 1017.1
20210731063504 79 175 0.0 0.0 0.00 0.01 0.00 91 1017.3
20210731063004 79 175 0.0 0.0 0.00 0.01 0.00 91 1017.2
20210731062504 79 175 0.0 0.0 0.00 0.01 0.00 91 1017.4
20210731062004 79 175 0.0 0.0 0.00 0.01 0.00 91 1017.5
20210731061504 79 175 0.0 0.0 0.00 0.01 0.00 91 1017.6
20210731061004 79 175 0.0 0.0 0.00 0.01 0.00 91 1017.7
20210731060504 79 175 0.0 0.0 0.00 0.01 0.00 91 1017.8
20210731060003 79 175 0.0 0.0 0.00 0.01 0.00 91 1017.8
20210731055503 79 175 0.0 0.0 0.00 0.01 0.00 91 1017.7
20210731055004 79 175 0.0 0.0 0.00 0.01 0.00 91 1017.8
20210731054504 79 175 0.0 0.0 0.00 0.01 0.00 91 1017.6
20210731054004 79 175 0.0 0.0 0.00 0.01 0.00 91 1017.6
20210731053504 79 175 0.0 0.0 0.00 0.01 0.00 91 1017.6
20210731053004 79 175 0.0 0.0 0.00 0.01 0.00 91 1017.6
20210731052504 79 175 0.0 0.0 0.00 0.01 0.00 91 1017.7
20210731052003 79 175 0.0 0.0 0.00 0.01 0.00 91 1017.6
20210731051503 79 175 0.0 0.0 0.00 0.01 0.00 90 1017.6
20210731051003 79 175 0.0 0.0 0.00 0.01 0.00 90 1017.6
20210731050504 79 175 0.0 0.0 0.00 0.01 0.00 90 1017.7
20210731050004 79 175 0.0 0.0 0.00 0.01 0.00 90 1017.7
20210731045504 79 175 0.0 0.0 0.00 0.01 0.00 90 1017.7
20210731045004 79 175 0.0 0.0 0.00 0.01 0.00 90 1017.7
20210731044503 79 175 0.0 0.0 0.00 0.01 0.00 90 1017.7
20210731044003 79 175 0.0 0.0 0.00 0.01 0.00 90 1017.6
20210731043503 79 175 0.0 0.0 0.00 0.01 0.00 90 1017.6
20210731043003 79 175 0.0 0.0 0.00 0.01 0.00 89 1017.6
20210731042504 79 175 0.0 0.0 0.00 0.01 0.00 89 1017.6
20210731042003 80 175 0.0 0.0 0.00 0.01 0.00 89 1017.6
20210731041503 80 175 0.0 0.0 0.00 0.01 0.00 89 1017.6
20210731041003 80 175 0.0 0.0 0.00 0.01 0.00 89 1017.6
20210731040503 80 175 0.0 0.0 0.00 0.01 0.00 89 1017.6
20210731040004 80 175 0.0 0.0 0.00 0.01 0.00 89 1017.6
20210731035504 80 175 0.0 0.0 0.00 0.01 0.00 89 1017.5
20210731035003 80 175 0.0 0.0 0.00 0.01 0.00 88 1017.5
20210731034503 80 175 0.0 0.0 0.00 0.01 0.00 88 1017.5
20210731034003 80 175 0.0 0.0 0.00 0.01 0.00 88 1017.4
20210731033503 80 175 0.0 0.0 0.00 0.01 0.00 88 1017.5
20210731033004 80 175 0.0 0.0 0.00 0.01 0.00 88 1017.5
20210731032503 80 175 0.0 0.0 0.00 0.01 0.00 88 1017.5
20210731032004 80 175 0.0 0.0 0.00 0.01 0.00 87 1017.5
20210731031504 80 175 0.0 0.0 0.00 0.01 0.00 87 1017.5
20210731031004 81 175 0.0 0.0 0.00 0.01 0.00 87 1017.5
20210731030504 81 175 0.0 0.0 0.00 0.01 0.00 87 1017.6
20210731030004 81 175 0.0 0.0 0.00 0.01 0.00 87 1017.5
20210731025503 81 175 0.0 0.0 0.00 0.01 0.00 86 1017.4
20210731025003 81 175 0.0 0.0 0.00 0.01 0.00 86 1017.4
20210731024503 81 175 0.0 0.0 0.00 0.01 0.00 86 1017.4
20210731024003 81 175 0.0 0.0 0.00 0.01 0.00 85 1017.1
20210731023503 81 175 0.0 0.0 0.00 0.01 0.00 85 1017.2
20210731023004 82 175 0.0 0.0 0.00 0.01 0.00 85 1017.1
20210731022503 82 175 0.0 0.0 0.00 0.01 0.00 85 1017.1
20210731022003 82 175 0.0 0.0 0.00 0.01 0.00 85 1017.1
20210731021503 82 175 0.0 0.0 0.00 0.01 0.00 84 1017.1
20210731021003 82 175 0.0 0.0 0.00 0.01 0.00 84 1017.0
20210731020503 82 175 0.0 0.0 0.00 0.01 0.00 84 1016.9
20210731020004 82 175 0.0 0.0 0.00 0.01 0.00 84 1016.9
20210731015504 82 175 0.0 0.0 0.00 0.01 0.00 84 1016.8
20210731015004 83 175 0.0 0.0 0.00 0.01 0.00 83 1016.8
20210731014504 83 175 0.0 0.0 0.00 0.01 0.00 83 1016.8
20210731014003 83 175 0.0 0.0 0.00 0.01 0.00 82 1016.8
20210731013504 83 175 0.0 0.0 0.00 0.01 0.00 82 1016.9
20210731013004 83 175 0.0 0.0 0.00 0.01 0.00 82 1016.9
20210731012503 83 175 0.0 0.0 0.00 0.01 0.00 82 1016.9
20210731012004 83 175 0.0 0.0 0.00 0.01 0.00 81 1016.9
20210731011503 84 175 0.0 0.0 0.00 0.01 0.00 81 1016.9
20210731011005 84 175 0.0 0.0 0.00 0.01 0.00 80 1017.0
20210731010503 84 175 0.0 0.0 0.00 0.01 0.00 79 1016.8
20210731010004 84 175 0.0 0.0 0.00 0.01 0.00 79 1016.7
20210731005503 84 175 0.0 0.0 0.00 0.01 0.00 80 1016.7
20210731005004 84 175 0.0 0.0 0.00 0.01 0.00 81 1016.7
20210731004503 84 175 0.0 0.0 0.00 0.01 0.00 80 1016.7
20210731004004 85 175 0.0 0.0 0.00 0.01 0.00 80 1016.7
20210731003504 85 175 0.0 0.0 0.00 0.01 0.00 80 1016.7
20210731003004 85 175 0.0 0.0 0.00 0.01 0.00 79 1016.6
20210731002503 85 175 0.0 0.0 0.00 0.01 0.00 79 1016.5
20210731002003 85 175 0.0 0.0 0.00 0.01 0.00 80 1016.6
20210731001504 85 175 0.0 0.0 0.00 0.01 0.00 79 1016.6
20210731001003 85 175 0.0 1.0 0.00 0.01 0.00 79 1016.7
20210731000503 85 175 0.0 0.0 0.00 0.01 0.00 80 1016.7
20210731000003 85 175 0.0 0.0 0.00 0.01 0.00 80 1016.7
20210730235503 85 175 0.0 0.0 0.00 0.01 0.00 80 1016.7
20210730235003 86 175 0.0 0.0 0.00 0.01 0.00 80 1016.7
20210730234503 86 175 0.0 0.0 0.00 0.01 0.00 79 1016.7
20210730234003 86 175 0.0 0.0 0.00 0.01 0.00 79 1016.7
20210730233503 86 175 0.0 0.0 0.00 0.01 0.00 79 1016.8
20210730233003 86 175 0.0 0.0 0.00 0.01 0.00 78 1016.8
20210730232503 86 175 0.0 0.0 0.00 0.01 0.00 79 1016.6
20210730232003 86 175 0.0 0.0 0.00 0.01 0.00 78 1016.6
20210730231503 86 175 0.0 0.0 0.00 0.01 0.00 78 1016.7
20210730231004 86 175 0.0 0.0 0.00 0.01 0.00 78 1016.7
20210730230504 86 175 0.0 0.0 0.00 0.01 0.00 78 1016.7
20210730230004 87 175 0.0 0.0 0.00 0.01 0.00 78 1016.7
20210730225504 87 175 0.0 0.0 0.00 0.01 0.00 78 1016.8
20210730225004 87 175 0.0 0.0 0.00 0.01 0.00 77 1016.8
20210730224504 87 175 0.0 0.0 0.00 0.01 0.00 77 1016.9
20210730224004 87 175 0.0 0.0 0.00 0.01 0.00 78 1016.9
20210730223504 87 175 0.0 0.0 0.00 0.01 0.00 78 1016.9
20210730223004 87 175 0.0 0.0 0.00 0.01 0.00 78 1016.9
20210730222504 87 175 0.0 0.0 0.00 0.01 0.00 78 1016.9
20210730222003 87 175 0.0 0.0 0.00 0.01 0.00 78 1017.0
20210730221503 87 175 0.0 1.0 0.00 0.01 0.00 79 1017.0
20210730221003 87 175 0.0 2.0 0.00 0.01 0.00 77 1017.1
20210730220503 87 175 1.0 3.0 0.00 0.01 0.00 77 1017.3
20210730220003 87 180 0.0 1.0 0.00 0.01 0.00 78 1017.3
20210730215503 87 180 0.0 2.0 0.00 0.01 0.00 77 1017.4
20210730215003 88 180 1.0 3.0 0.00 0.01 0.00 76 1017.4
20210730214503 88 180 1.0 5.0 0.00 0.01 0.00 75 1017.4
20210730214003 88 169 2.0 6.0 0.00 0.01 0.00 75 1017.4
20210730213503 89 196 2.0 5.0 0.00 0.01 0.00 75 1017.4
20210730213004 89 155 3.0 7.0 0.00 0.01 0.00 74 1017.6
20210730212503 90 162 2.0 5.0 0.00 0.01 0.00 74 1017.6
20210730212004 91 160 2.0 8.0 0.00 0.01 0.00 73 1017.6
20210730211503 92 180 3.0 12.0 0.00 0.01 0.00 72 1017.5
20210730211003 92 175 0.0 1.0 0.00 0.01 0.00 72 1017.3
20210730210503 93 175 0.0 2.0 0.00 0.01 0.00 70 1017.3
20210730210004 93 175 0.0 2.0 0.00 0.01 0.00 69 1017.2
20210730205504 93 175 0.0 0.0 0.00 0.01 0.00 70 1017.2
20210730205003 93 175 0.0 1.0 0.00 0.02 0.00 67 1017.2
20210730204503 93 175 0.0 2.0 0.00 0.02 0.00 68 1017.3
20210730204003 93 175 1.0 3.0 0.00 0.02 0.00 68 1017.2
20210730203503 93 160 1.0 6.0 0.00 0.02 0.00 69 1017.2
20210730203003 93 192 2.0 5.0 0.00 0.02 0.00 67 1017.3
20210730202503 93 182 0.0 2.0 0.00 0.02 0.00 66 1017.4
20210730202003 93 182 0.0 2.0 0.00 0.02 0.00 67 1017.3
20210730201504 93 182 0.0 1.0 0.00 0.02 0.00 66 1017.3
20210730201003 93 182 1.0 3.0 0.00 0.02 0.00 68 1017.3
20210730200504 94 0 1.0 3.0 0.00 0.02 0.00 68 1017.3
20210730200004 94 211 0.0 0.0 0.00 0.02 0.00 69 1017.4
20210730195503 94 211 0.0 0.0 0.00 0.02 0.00 69 1017.4
20210730195003 93 211 0.0 1.0 0.00 0.02 0.00 69 1017.3
20210730194503 93 211 1.0 3.0 0.00 0.02 0.00 67 1017.4
20210730194003 93 212 1.0 3.0 0.00 0.02 0.00 67 1017.4
20210730193503 93 229 1.0 2.0 0.00 0.02 0.00 67 1017.5
20210730193003 93 342 2.0 5.0 0.00 0.02 0.00 69 1017.7
20210730192503 93 0 0.0 1.0 0.00 0.02 0.00 69 1017.8
20210730192004 90 12 1.0 2.0 0.00 0.02 0.00 73 1018.0